Home   Weather   Camrose   Past weeks

Flag for Canada Past Weather in Camrose, Alberta, Canada — Yesterday and Last 2 Weeks

Now
36 °F

Passing clouds.


Feels Like: 29 °F
Forecast: 32 / 38 °F
Wind: 9 mph from East

Location: Edmonton International

Current Time: Apr 26, 2017 at 9:34:46 pm

Latest Report: Apr 26, 2017 at 9:00 pm


Visibility: 15 mi

Pressure: 29.82 "Hg (27.18 "Hg at 744m altitude)

Humidity: 75%

Dew Point: 28 °F

Location of CamroseLocation

Past Weather in Camrose — Graph

°F

Camrose Temperature Yesterday

Maximum temperature yesterday: 37 °F (at 5:00 pm)
Minimum temperature yesterday: 30 °F (at 10:44 pm)
Average temperature yesterday: 34 °F

High & Low Weather Summary for the Past Weeks

 TemperatureHumidityPressure
High55 °F (Apr 20, 5:00 pm)100% (Apr 12, 4:00 am)30.46 "Hg (Apr 12, 4:00 am)
Low14 °F (Apr 16, 7:00 am)41% (Apr 20, 7:00 pm)29.72 "Hg (Apr 14, 1:00 pm)
Average34 °F85%30.05 "Hg
* Reported Apr 11 7:00 pm — Apr 26 7:00 pm, Camrose, Weather by CustomWeather, © 2017

Note: Actual official high and low records may vary slightly from our data, if they occured in-between our weather recording intervals... More about our weather records

Advertising

Camrose Weather History for the Previous 24 Hours

Scroll right to see more
 ConditionsComfort  
Time TempWeatherWind HumidityBarometerVisibility
7:00 pm
Wed, Apr 26
36 °FOvercast.9 mph70%29.82 "Hg15 mi
6:00 pm36 °FOvercast.8 mph70%29.81 "Hg15 mi
5:00 pm36 °FBroken clouds.12 mph70%29.81 "Hg15 mi
4:00 pm36 °FMore clouds than sun.10 mph70%29.82 "Hg15 mi
3:00 pm36 °FOvercast.13 mph70%29.83 "Hg15 mi
2:00 pm34 °FOvercast.12 mph75%29.84 "Hg15 mi
1:00 pm34 °FOvercast.10 mph70%29.84 "Hg15 mi
12:29 pm34 °FMore clouds than sun.10 mph75%29.85 "Hg12 mi
12:00 pm34 °FMostly cloudy.12 mph75%29.85 "Hg15 mi
11:00 am34 °FMostly cloudy.10 mph81%29.86 "Hg15 mi
10:00 am32 °FMostly cloudy.14 mph80%29.87 "Hg15 mi
9:25 am32 °FOvercast.13 mph80%29.88 "Hg15 mi
9:00 am30 °FLight snow. Overcast.12 mph86%29.88 "Hg15 mi
8:14 am30 °FLight snow. Overcast.15 mph86%29.88 "Hg12 mi
7:29 am30 °FOvercast.15 mph86%29.88 "Hg15 mi
7:00 am30 °FLow clouds.15 mph86%29.88 "Hg15 mi
6:00 am30 °FMostly cloudy.14 mph86%29.89 "Hg15 mi
5:15 am30 °FMostly cloudy.14 mph86%29.90 "Hg15 mi
5:00 am30 °FMostly cloudy.15 mph86%29.90 "Hg15 mi
4:00 am30 °FMostly cloudy.10 mph86%29.92 "Hg15 mi
3:21 am30 °FMostly cloudy.10 mph93%29.92 "Hg15 mi
3:00 am30 °FPassing clouds.10 mph93%29.93 "Hg15 mi
2:00 am28 °FPassing clouds.10 mph86%29.96 "Hg15 mi
1:00 am30 °FPartly cloudy.14 mph86%29.97 "Hg15 mi
12:36 am30 °FPartly cloudy.15 mph86%29.98 "Hg15 mi
12:00 am30 °FMostly cloudy.12 mph93%29.99 "Hg15 mi
11:00 pm
Tue, Apr 25
30 °FPassing clouds.17 mph93%30.00 "Hg15 mi
10:44 pm30 °FPassing clouds.14 mph93%30.01 "Hg15 mi
10:00 pm32 °FPartly cloudy.12 mph87%30.01 "Hg15 mi
9:00 pm34 °FOvercast.15 mph81%30.02 "Hg15 mi
Weather by CustomWeather, © 2017

See weather overviewHow to use our weather pages